Voltar ao catálogo

GEESAT 5-04

AtivoComunicaçõesLEO
NORAD 65553·PAYLOAD·🇨🇳 China

Lançado Sep 8, 2025 de Yellow Sea Launch Area

Loading…

Próximas Passagens (próximas 24 horas)

TLE

AtualizadoSource: Space-Track

Época: Sep 14, 2026, 05:45 UTC

1 65553U 25201D   26257.23970383  .00000879  00000-0  13035-3 0  9990
2 65553  49.9875 346.6914 0008481 252.3675 107.6338 14.84420005 55019

Acompanhe GEESAT 5-04 em tempo real com AllMySat

Download on the App Store